TimeCDT,TemperatureF,Dew PointF,Humidity,Sea Level PressureIn,VisibilityMPH,Wind Direction,Wind SpeedMPH,Gust SpeedMPH,PrecipitationIn,Events,Conditions,WindDirDegrees,DateUTC
12:01 AM,62.6,60.8,94,30.01,3.0,Calm,Calm,-,N/A,,Clear,0,2012-10-06 05:01:00
12:24 AM,62.6,60.8,94,30.01,1.8,Calm,Calm,-,N/A,,Clear,0,2012-10-06 05:24:00
12:39 AM,60.8,60.8,100,30.01,3.0,Calm,Calm,-,N/A,,Clear,0,2012-10-06 05:39:00
12:53 AM,62.1,62.1,100,30.03,4.0,Calm,Calm,-,N/A,,Clear,0,2012-10-06 05:53:00
1:14 AM,62.6,60.8,94,30.01,2.0,Calm,Calm,-,N/A,,Clear,0,2012-10-06 06:14:00
1:32 AM,62.6,60.8,94,30.01,3.0,Calm,Calm,-,N/A,,Clear,0,2012-10-06 06:32:00
1:38 AM,60.8,60.8,100,30.01,1.8,Calm,Calm,-,N/A,,Clear,0,2012-10-06 06:38:00
1:53 AM,61.0,60.1,97,30.03,0.5,Calm,Calm,-,N/A,Fog,Fog,0,2012-10-06 06:53:00
2:03 AM,62.6,60.8,94,30.03,2.0,NNW,9.2,-,N/A,,Scattered Clouds,340,2012-10-06 07:03:00
2:11 AM,66.2,64.4,94,30.03,7.0,NNW,5.8,17.3,N/A,,Mostly Cloudy,330,2012-10-06 07:11:00
2:53 AM,63.0,61.0,93,30.06,10.0,North,16.1,23.0,N/A,,Overcast,10,2012-10-06 07:53:00
3:17 AM,60.8,59.0,94,30.05,10.0,NNE,10.4,-,N/A,,Overcast,20,2012-10-06 08:17:00
3:53 AM,59.0,57.0,93,30.07,10.0,North,11.5,-,N/A,,Overcast,10,2012-10-06 08:53:00
4:53 AM,57.0,54.0,89,30.09,10.0,North,11.5,19.6,N/A,,Overcast,360,2012-10-06 09:53:00
5:53 AM,55.0,52.0,89,30.11,10.0,North,11.5,19.6,N/A,,Overcast,10,2012-10-06 10:53:00
6:53 AM,55.0,51.1,86,30.12,10.0,North,11.5,-,N/A,,Overcast,10,2012-10-06 11:53:00
7:53 AM,54.0,50.0,86,30.14,10.0,North,10.4,17.3,N/A,,Overcast,360,2012-10-06 12:53:00
9:45 AM,53.6,48.2,82,30.15,10.0,North,13.8,19.6,N/A,,Overcast,10,2012-10-06 14:45:00
9:53 AM,54.0,48.9,83,30.17,10.0,North,13.8,-,N/A,,Overcast,10,2012-10-06 14:53:00
10:05 AM,53.6,48.2,82,30.15,10.0,North,13.8,18.4,N/A,,Overcast,10,2012-10-06 15:05:00
10:53 AM,55.0,48.9,80,30.16,10.0,NNE,9.2,-,N/A,,Overcast,20,2012-10-06 15:53:00
11:53 AM,55.9,50.0,80,30.15,10.0,NNW,8.1,-,N/A,,Overcast,340,2012-10-06 16:53:00
12:53 PM,57.9,50.0,75,30.13,10.0,North,8.1,-,N/A,,Overcast,360,2012-10-06 17:53:00
1:53 PM,57.0,50.0,77,30.13,10.0,North,8.1,-,N/A,,Overcast,360,2012-10-06 18:53:00
2:53 PM,57.9,50.0,75,30.11,10.0,NNW,6.9,-,N/A,,Overcast,340,2012-10-06 19:53:00
3:53 PM,57.0,50.0,77,30.11,10.0,North,11.5,-,N/A,,Overcast,360,2012-10-06 20:53:00
4:53 PM,57.0,50.0,77,30.11,10.0,North,11.5,-,N/A,,Overcast,10,2012-10-06 21:53:00
5:53 PM,55.9,48.9,77,30.12,10.0,North,12.7,-,N/A,,Overcast,360,2012-10-06 22:53:00
6:53 PM,55.0,48.9,80,30.13,10.0,North,12.7,17.3,N/A,,Overcast,10,2012-10-06 23:53:00
7:53 PM,53.1,46.0,77,30.14,10.0,North,12.7,-,N/A,,Overcast,360,2012-10-07 00:53:00
8:53 PM,52.0,46.9,83,30.17,10.0,North,11.5,-,N/A,,Overcast,10,2012-10-07 01:53:00
9:37 PM,51.8,48.2,88,30.16,8.0,North,10.4,-,N/A,,Overcast,10,2012-10-07 02:37:00
9:53 PM,50.0,48.0,93,30.18,6.0,North,9.2,-,N/A,,Overcast,10,2012-10-07 02:53:00
10:09 PM,50.0,48.2,94,30.16,6.0,North,9.2,-,N/A,,Overcast,10,2012-10-07 03:09:00
10:31 PM,50.0,46.4,87,30.17,10.0,North,10.4,-,N/A,,Overcast,10,2012-10-07 03:31:00
10:53 PM,50.0,46.9,89,30.19,10.0,NNE,11.5,-,N/A,,Overcast,20,2012-10-07 03:53:00
11:39 PM,51.8,46.4,82,30.15,10.0,NNE,8.1,-,N/A,,Overcast,20,2012-10-07 04:39:00
11:53 PM,51.1,46.9,86,30.18,10.0,North,8.1,-,N/A,,Overcast,10,2012-10-07 04:53:00